EHI
14 13 11 10 8 8 8 6 4 3 3 3 3 3 2 1 0 0 0 0 0 0 0 0 0 0 0 0 0 0 0 0 0 0 0 0 0 1 1 1 0 0 0
11 10 9 7 6 5 5 4 2 1 2 2 2 1 1 1 0 0 0 0 0 0 0 0 0 0 0 0 0 0 0 0 0 0 0 0 0 0 0 0 0 0 0
6 6 5 3 2 2 3 3 2 2 2 2 1 1 1 1 0 0 0 0 0 0 0 0 0 0 0 0 0 0 0 0 0 0 0 0 0 0 0 0 0 0 0
3 3 2 1 0 1 3 4 7 10 10 7 4 3 1 1 0 0 0 0 0 0 0 0 0 0 0 0 0 0 0 0 0 0 0 0 0 0 0 0 0 0 0
1 1 0 0 0 2 4 8 15 19 18 13 8 5 2 1 0 0 0 0 0 0 0 0 0 0 0 0 0 0 0 0 0 0 0 0 0 0 0 0 0 0 0
0 0 0 0 2 4 7 12 19 23 20 14 9 5 3 1 0 0 0 0 0 0 0 0 0 0 0 0 0 0 0 0 0 0 0 0 0 0 0 0 0 0 0
0 0 1 2 4 6 9 13 18 19 14 8 5 3 1 1 0 0 0 0 0 0 0 0 0 0 0 0 0 0 0 0 0 0 0 0 0 0 0 0 0 0 0
0 0 1 3 5 7 10 12 13 11 7 4 2 1 0 0 0 0 0 0 0 0 0 0 0 0 0 0 0 0 0 0 0 0 0 0 0 0 0 0 0 0 0
0 0 1 3 6 8 10 9 7 5 4 2 1 0 0 0 0 0 0 0 0 0 0 0 0 0 0 0 0 0 0 0 0 0 0 0 0 0 0 0 0 0 0
0 0 1 3 5 6 7 5 4 3 3 1 0 0 0 0 0 0 0 0 0 0 0 0 0 0 0 0 0 0 0 0 0 0 0 0 0 0 0 0 0 0 0
0 1 2 3 4 3 2 2 2 2 2 1 0 0 0 0 0 0 0 0 0 0 0 0 0 0 0 0 0 0 0 0 0 0 0 0 0 0 0 0 0 0 0
1 1 2 2 1 0 0 1 1 1 1 0 0 0 0 0 0 0 0 0 0 0 0 0 0 0 0 0 0 0 0 0 0 0 0 0 0 0 0 0 0 0 0
0 1 1 1 0 0 0 0 0 0 0 0 0 0 0 0 0 0 0 0 0 0 0 0 0 0 0 0 0 0 0 0 0 0 0 0 0 0 0 0 0 0 0
0 0 0 0 0 0 0 0 0 0 0 0 0 0 0 0 0 0 0 0 0 0 0 0 0 0 0 0 0 0 0 0 0 0 0 0 0 0 0 0 0 0 0
0 0 0 0 0 0 0 0 0 0 0 0 0 0 0 0 0 0 0 0 0 0 0 0 0 0 0 0 0 0 0 0 0 0 0 0 0 0 0 0 0 0 0
0 0 0 0 0 0 0 0 0 0 0 0 0 0 0 0 0 0 0 0 0 0 0 0 0 0 0 0 0 0 0 0 0 0 0 0 0 0 0 0 0 0 0
0 0 0 0 0 0 0 0 0 0 0 0 0 0 0 0 0 0 0 0 0 0 0 0 0 0 0 0 0 0 0 0 0 0 0 0 0 0 0 0 0 0 0
0 0 0 0 0 0 0 0 0 0 0 0 0 0 0 0 0 0 0 0 0 0 0 0 0 0 0 0 0 0 0 0 0 0 0 0 0 0 0 0 0 0 0
0 0 0 0 0 0 0 0 0 0 0 0 0 0 0 0 0 0 0 0 0 0 0 0 0 0 0 0 0 0 0 0 0 0 0 0 0 0 0 0 0 0 0
0 0 0 0 0 0 0 0 0 0 0 0 0 0 0 0 0 0 0 0 0 0 0 0 0 0 0 0 0 0 0 0 0 0 0 0 0 0 0 0 0 0 0
0 0 0 0 0 0 0 0 0 0 0 0 0 0 0 0 0 0 0 0 0 0 0 0 0 0 0 0 0 0 0 0 0 0 0 0 0 0 0 0 0 0 0
0 0 0 0 0 1 1 1 0 0 0 0 0 0 0 0 0 0 0 0 0 0 0 0 0 0 0 0 0 0 0 0 0 0 0 0 0 0 0 0 0 0 0
0 0 0 0 0 1 2 1 0 0 0 0 0 0 0 0 0 0 0 0 0 0 0 0 0 0 0 0 0 0 0 0 0 0 0 0 0 0 0 0 0 0 0
0 0 0 0 0 1 1 1 1 0 0 0 0 0 0 0 0 0 0 0 0 0 0 0 0 0 0 0 0 0 0 0 0 0 0 0 0 0 0 0 0 0 0
0 0 0 0 0 0 0 0 0 0 0 0 0 0 0 0 0 0 0 0 0 0 0 0 0 0 0 0 0 0 0 0 0 0 0 0 0 0 0 0 0 0 0
0 0 0 0 0 0 0 0 0 0 0 0 0 0 0 0 0 0 0 0 0 0 0 0 0 0 0 0 0 0 0 0 0 0 0 0 0 0 0 0 0 0 0
Wind_Speed
8 8 7 7 7 6 6 6 6 5 4 3 3 2 2 1 1 0 2 2 3 4 4 6 4 5 6 6 7 6 7 7 5 8 8 8 10 9 8 8 9 10 11
9 8 8 8 8 7 7 6 6 6 5 3 2 1 2 2 2 2 1 2 3 4 4 4 6 5 5 6 6 6 7 7 5 7 8 8 6 5 6 5 6 7 7
10 10 10 10 9 8 8 7 6 6 5 4 3 3 3 4 4 3 2 2 4 4 5 5 6 6 8 6 6 7 8 7 7 6 6 7 6 6 4 4 4 4 5
11 10 10 10 10 9 8 8 7 6 5 6 5 5 5 6 5 4 4 4 5 5 5 6 6 6 7 6 8 6 6 7 8 6 5 7 7 7 7 5 4 4 5
11 10 10 10 9 9 8 8 7 7 6 6 5 6 6 5 5 5 5 6 5 5 6 6 6 6 7 6 7 7 8 7 8 8 7 6 6 8 8 9 7 6 5
11 10 9 9 9 8 8 8 7 6 6 6 6 6 6 6 7 7 7 6 5 5 5 6 6 7 7 6 7 7 8 8 8 8 8 8 8 8 8 9 9 8 7
10 10 10 9 9 8 8 6 6 6 6 6 5 5 5 6 7 7 6 7 6 6 5 6 6 7 6 7 8 7 8 8 8 9 9 8 8 8 9 9 9 9 8
10 10 9 8 8 7 7 6 6 5 5 5 4 4 5 6 6 5 7 8 7 7 7 7 8 8 8 8 7 8 8 7 8 10 10 9 9 9 8 9 9 10 9
10 9 8 7 7 7 6 5 5 5 4 4 4 5 5 6 6 7 8 7 6 7 8 8 8 8 8 8 8 8 8 8 9 10 10 10 9 9 9 9 9 10 10
9 8 8 8 7 6 6 5 5 4 4 4 5 4 5 6 6 8 8 8 8 8 9 9 9 9 9 9 9 10 9 9 10 9 10 10 10 8 8 9 9 9 10
9 9 8 8 8 7 7 6 5 5 4 5 5 5 6 7 7 7 8 8 8 8 9 10 10 10 10 10 10 11 10 11 11 11 11 11 11 10 9 9 9 9 10
8 9 9 9 8 7 6 6 5 5 5 5 5 6 6 7 8 9 8 9 9 9 10 10 10 11 11 10 11 12 11 11 12 12 12 12 10 11 11 10 11 10 9
9 9 9 9 8 7 5 5 5 5 5 5 6 6 7 8 8 9 9 9 9 10 10 10 11 11 11 11 11 11 12 12 12 12 12 12 12 12 11 11 11 10 10
10 10 9 8 7 6 5 5 5 4 5 5 6 7 8 8 9 9 9 9 10 10 10 11 11 11 12 12 12 11 12 12 12 12 12 13 13 13 12 11 12 11 11
11 10 9 8 7 7 6 5 5 5 5 6 7 8 8 8 8 9 9 10 10 11 11 11 11 12 11 10 10 11 12 12 12 12 13 13 12 12 11 10 11 11 10
10 10 9 8 8 7 6 5 5 5 5 6 8 7 8 8 9 9 9 10 10 10 11 11 12 12 10 5 5 10 13 13 13 13 13 13 13 14 15 16 16 15 13
9 10 9 9 7 7 6 6 5 5 6 7 7 8 8 9 9 10 10 10 10 11 11 11 11 12 11 8 9 10 12 14 14 13 12 12 11 11 13 15 19 19 20
8 9 8 8 8 7 6 6 6 6 6 7 7 8 8 9 9 9 10 10 10 10 10 11 11 12 11 7 9 10 13 14 14 14 13 13 13 12 11 13 13 14 15
8 8 8 8 7 7 6 6 6 6 7 7 7 7 8 9 9 10 10 10 10 10 11 11 11 12 11 9 9 10 11 11 13 13 13 12 13 9 8 12 14 14 13
7 7 7 7 7 7 6 6 7 7 7 7 7 7 8 9 10 10 11 10 10 10 11 11 11 12 12 8 6 8 10 11 11 10 10 11 12 8 6 11 13 14 13
9 9 8 8 7 7 7 7 7 7 7 6 7 7 8 9 10 10 10 10 10 10 11 12 11 11 11 9 8 9 9 10 10 9 9 7 7 9 10 11 13 12 11
9 10 9 8 7 7 8 8 8 7 6 6 8 8 8 9 8 9 10 10 10 11 11 10 10 9 8 7 5 7 10 11 11 10 9 6 3 7 10 10 11 10 10
8 9 9 8 8 8 8 9 8 6 6 7 8 9 9 9 9 9 10 10 9 9 9 9 9 8 7 6 7 10 11 11 10 9 9 8 7 8 10 14 13 11 10
7 7 8 9 8 8 9 9 7 7 7 8 8 8 9 9 8 8 8 8 8 8 9 9 9 9 8 7 6 5 5 9 10 10 9 12 13 12 11 8 10 11 10
5 6 6 7 8 7 8 8 8 7 8 9 9 9 9 9 8 8 8 9 9 7 9 10 10 9 9 6 6 7 8 8 7 8 8 8 7 7 8 8 8 8 9
3 4 6 6 7 7 7 7 8 8 9 9 9 8 8 7 8 8 8 8 11 9 12 13 12 10 10 10 10 10 11 11 10 8 9 8 8 8 8 8 8 8 9
Wind_Direction
163 163 166 167 167 168 171 174 174 164 183 190 208 205 208 224 244 301 35 334 331 331 309 308 311 293 292 297 292 288 280 272 288 285 281 269 253 248 250 248 251 245 241
173 177 182 183 185 182 184 188 191 189 204 197 233 270 298 275 290 305 302 307 318 310 299 318 300 302 297 276 279 275 287 290 281 290 295 288 267 228 242 247 243 250 248
186 187 191 192 193 194 196 199 200 202 213 213 225 223 229 247 249 266 266 302 303 301 311 305 304 309 291 290 291 280 270 283 285 278 292 297 303 318 257 248 260 264 261
196 194 194 199 202 203 202 205 208 211 212 220 240 256 275 290 308 302 307 301 286 294 297 297 295 295 295 295 280 282 284 273 276 269 258 274 302 296 295 270 255 264 268
199 200 204 207 210 209 209 207 209 213 214 228 236 252 269 287 292 296 289 287 288 283 289 293 295 291 286 295 299 297 282 276 273 280 276 268 261 256 271 284 289 284 278
202 205 209 210 213 213 213 212 209 215 215 223 235 253 277 288 296 294 297 290 290 286 287 287 287 282 287 289 281 282 272 273 280 280 278 274 273 272 274 278 282 285 286
202 204 208 210 211 212 212 211 207 211 213 222 237 252 270 278 276 284 292 294 296 294 298 299 290 285 283 279 279 273 277 273 269 267 270 272 273 276 277 279 282 284 283
200 204 207 208 206 202 196 198 202 210 213 223 238 256 266 273 285 292 299 297 296 301 310 293 282 279 277 275 273 274 267 264 265 265 269 272 269 270 269 272 281 281 279
193 195 191 189 185 184 182 186 189 200 212 230 243 256 265 280 291 290 276 283 291 291 291 288 283 278 274 272 272 269 272 270 265 264 256 255 264 262 265 266 267 275 280
187 181 174 173 170 170 167 174 187 204 224 238 254 266 269 272 277 283 294 294 292 290 288 284 282 278 274 267 264 268 261 262 262 263 270 270 268 267 263 263 262 261 268
184 173 168 164 165 170 173 183 195 214 236 256 262 273 275 280 282 281 282 285 287 289 284 284 283 280 276 271 265 266 271 265 264 262 258 256 262 268 268 261 258 258 259
177 170 167 168 175 183 189 199 214 233 252 262 265 269 275 279 281 285 288 286 284 283 283 283 281 278 276 272 268 266 267 266 265 264 263 260 257 253 258 263 263 261 263
178 174 174 179 186 193 203 219 234 250 263 266 265 271 277 282 285 289 289 288 285 284 284 283 280 279 279 275 270 268 268 267 267 265 263 261 259 257 256 256 260 260 255
183 184 183 188 193 200 209 226 241 257 266 272 273 278 283 288 289 289 288 286 286 285 285 284 283 281 279 276 273 270 269 268 267 265 263 261 258 255 255 255 254 258 262
190 192 194 192 197 205 213 227 240 253 268 274 278 283 286 287 285 285 286 287 286 285 287 287 285 282 278 273 279 281 277 273 270 266 262 259 256 262 263 265 261 256 252
201 198 199 200 204 211 219 226 237 250 258 269 279 286 288 287 286 287 288 289 288 289 289 286 286 285 283 304 301 283 283 280 274 269 265 262 249 241 237 247 259 267 265
205 202 203 206 209 211 216 225 235 247 258 269 279 284 286 287 289 292 293 292 292 291 289 287 287 285 283 273 261 259 274 275 272 270 267 264 261 246 245 235 232 241 246
208 204 206 205 206 205 208 220 236 246 258 270 277 284 288 290 291 291 291 292 291 291 289 288 287 286 284 268 257 256 265 268 266 265 264 262 264 260 259 260 251 244 237
210 205 207 207 202 203 208 216 237 251 262 271 279 287 292 293 292 292 294 295 294 292 289 287 287 286 284 267 249 253 276 269 267 265 264 263 263 257 246 259 262 259 253
202 200 198 199 199 206 206 219 240 253 265 276 283 289 290 290 290 293 294 294 293 290 290 290 291 290 288 282 250 246 274 275 276 272 267 254 251 263 241 254 257 257 254
201 198 200 201 203 201 203 224 245 256 269 278 281 282 285 285 284 287 288 290 290 292 291 291 289 286 284 279 246 235 267 280 283 282 277 271 212 226 234 247 258 261 270
205 202 203 207 203 200 207 228 244 257 265 268 272 277 281 284 289 288 286 287 288 287 285 284 286 286 282 277 261 228 244 268 278 278 278 284 233 231 235 239 250 255 259
211 208 208 212 208 204 214 234 244 249 255 262 270 276 281 281 282 284 285 283 280 283 292 296 297 300 301 288 233 233 242 245 257 270 279 282 268 255 242 235 237 238 239
215 212 212 217 215 212 219 232 244 244 248 258 266 271 275 277 279 280 280 284 290 295 298 299 299 300 296 296 306 291 262 241 246 257 258 244 243 246 258 248 221 227 234
215 211 216 225 227 223 226 232 234 235 246 255 261 267 271 275 280 276 276 282 287 294 292 298 301 299 297 324 351 313 300 305 317 312 284 270 258 245 243 243 236 229 224
218 219 223 229 232 229 231 234 234 231 240 250 255 265 271 275 276 280 280 249 244 253 244 250 265 283 281 293 295 286 277 276 279 278 270 268 263 258 253 248 239 231 230